sat.trackr.live / text

‹ back to catalog

STARLINK-4605

NORAD 53616 · 2022-104AE

PAYLOAD ACTIVE UNKNOWN

§ Identity

Operator
Country
US
Launch date
2022-08-28
Launch site
AFETR
Launch vehicle
Mass (kg)
RCS (m²)

Purposes: comms

External: N2YO · Heavens-Above · Gunter

§ Orbital elements

Epoch: 2026-09-20T22:13:51.207168Z

Period
93.85 min
Inclination
53.1616°
Eccentricity
0.0001151
Mean motion
15.34394122 rev/d
Perigee alt
461.9 km
Apogee alt
463.5 km
Semi-major
6,840.9 km
B*
2.6384e-5
RAAN
59.5099°
Arg perigee
79.5012°
Mean anomaly
280.6121°
Rev number
22,546

§ Raw data

STARLINK-46051 53616U 22104AE  26263.92628712  .00000515  00000+0  26384-4 0  99932 53616  53.1616  59.5099 0001151  79.5012 280.6121 15.34394122225467

JSON: /api/v1/satellites/53616 · /tle

For live sub-satellite position, see the globe view (requires WebGL).

§ Visibility from observer

Set your observer location to see the next 7 days of passes ≥ 10°. The values pass through the URL so the page stays shareable.

No JS? Fill the form by hand. The geolocation button needs JavaScript.